Flag for Germany Weather past 2 weeks in Varel, Lower Saxony, Germany

Now
77 °F

Passing clouds.


Feels Like: 79 °F
Forecast: 61 / 80 °F
Wind: 9 mph from Northeast

Location: Wittmundhaven

Current Time: Jul 10, 2014 at 8:53:06 PM

Latest Report: Jul 10, 2014 at 8:20 PM


Visibility: N/A

Pressure: 29.86 "Hg

Humidity: 61%

Dew point: 63 °F

Location of VarelLocation

Historic Weather in Varel — Graph

°F

Varel temperature yesterday

Maximum temperature yesterday: 81 °F (at 4:20 PM)
Minimum temperature yesterday: 59 °F (at 12:20 AM)
Average temperature yesterday: 69 °F

Past Weeks' High & Low Weather Summary

 TemperatureHumidityPressure
High82 °F (Jul 4, 4:20 PM)100% (Jun 28, 6:20 AM)30.21 "Hg (Jun 28, 6:20 AM)
Low50 °F (Jul 1, 4:20 AM)32% (Jul 4, 4:20 PM)29.65 "Hg (Jul 5, 4:20 AM)
Average62 °F77%29.92 "Hg
* Reported Jun 25 7:20 PM — Jul 10 7:20 PM, Varel, Weather by CustomWeather, © 2014

Note: Actual official high and low records may vary slightly from our data, if they occured in-between our weather recording intervals... More about our weather records

Advertising

Varel weather history for previous 24 hours

 ConditionsComfort  
Time TempWeatherWind HumidityBarometerVisibility
7:20 PM
Jul 10
79 °FPassing clouds.14 mph61%29.86 "HgN/A
6:20 PM81 °FPassing clouds.16 mph58%29.86 "HgN/A
5:20 PM81 °FPassing clouds.13 mph58%29.83 "HgN/A
4:20 PM81 °FPassing clouds.13 mph62%29.86 "HgN/A
3:20 PM79 °FPassing clouds.8 mph65%29.86 "HgN/A
2:20 PM77 °FPassing clouds.10 mph69%29.86 "HgN/A
1:20 PM75 °FScattered clouds.9 mph69%29.83 "HgN/A
12:20 PM70 °FScattered clouds.10 mph83%29.83 "HgN/A
11:20 AM72 °FPassing clouds.9 mph78%29.83 "HgN/A
10:20 AM72 °FPassing clouds.8 mph73%29.83 "HgN/A
9:20 AM72 °FPassing clouds.8 mph73%29.83 "HgN/A
8:20 AM70 °FMild.10 mph73%29.80 "HgN/A
7:20 AM68 °FMild.9 mph78%29.80 "HgN/A
6:20 AM64 °FMild.8 mph88%29.77 "HgN/A
5:20 AM64 °FPassing clouds.7 mph88%29.77 "HgN/A
4:20 AM64 °FPassing clouds.7 mph88%29.77 "HgN/A
3:20 AM66 °FPassing clouds.12 mph83%29.77 "HgN/A
2:20 AM66 °FPassing clouds.12 mph83%29.77 "HgN/A
1:20 AM68 °FPassing clouds.13 mph78%29.77 "HgN/A
12:20 AM68 °FPassing clouds.12 mph83%29.77 "HgN/A
11:20 PM
Jul 9
68 °FPassing clouds.7 mph88%29.74 "HgN/A
10:20 PM70 °FPassing clouds.6 mph83%29.77 "HgN/A
9:20 PM70 °FScattered clouds.5 mph83%29.74 "HgN/A
8:20 PM72 °FScattered clouds.2 mph78%29.74 "HgN/A
Weather by CustomWeather, © 2014

See weather overviewHow to use our weather pages